Regional Weather Roundup
Issued by NWS

Home | Current Version | Previous Version | Text Only | Print | Product List | Glossary On
Versions: 1 2 3 4 5 6 7 8 9 10 11 12 13 14 15 16 17 18 19 20 21 22 23 24 25 26 27 28 29 30 31 32 33 34 35 36 37 38 39 40 41 42 43 44 45 46 47 48 49 50
000
ASUS43 KOAX 222302
RWRNE

WEATHER ROUNDUP FOR NEBRASKA
NATIONAL WEATHER SERVICE OMAHA NE
600 PM CDT MON SEP 22 2014

NOTES: SATELLITE DATA IS BEING USED TO AUGMENT CLOUD COVER ABOVE
       12000 FEET.
       "FAIR" INDICATES FEW OR NO CLOUDS BELOW 12,000 FEET WITH NO
       SIGNIFICANT WEATHER AND/OR OBSTRUCTIONS TO VISIBILITY.

  * THESE STATIONS DO NOT REPORT WEATHER SUCH AS RAIN...SNOW OR FOG.

NEZ001>004-019>022-054>056-230000-
NEBRASKA PANHANDLE

CITY           SKY/WX    TMP DP  RH WIND       PRES   REMARKS
SCOTTSBLUFF    PTSUNNY   71  59  65 S8        30.06R
ALLIANCE       LGT RAIN  66  58  75 NW5       30.07S
CHADRON        CLOUDY    73  55  53 SW16G29   29.99S
KIMBALL        PTSUNNY   70  54  56 N8        30.08F
SIDNEY         PTSUNNY   75  54  47 SE21G28   30.07F
$$

NEZ057>060-069>072-079>082-230000-
SOUTHWEST NEBRASKA

CITY           SKY/WX    TMP DP  RH WIND       PRES   REMARKS
NORTH PLATTE   LGT RAIN  58  55  90 E8        30.13F
IMPERIAL       CLOUDY    73  50  44 SE17G28   30.08F
LEXINGTON      LGT RAIN  68  53  58 SE3       30.14F
MCCOOK         CLOUDY    75  46  35 SE16G25   30.10F
OGALLALA       CLOUDY    65  57  74 SE10      30.08F
$$

NEZ005>010-023>029-035>040-094-230000-
NORTH CENTRAL NEBRASKA

CITY           SKY/WX    TMP DP  RH WIND       PRES   REMARKS
VALENTINE      CLOUDY    65  51  60 S21G30    30.08F
AINSWORTH      DRIZZLE   60  53  78 S10       30.10S
BROKEN BOW     LGT RAIN  65  53  65 S7        30.16R
O`NEILL        CLOUDY    71  52  50 S9        30.13F
ORD            CLOUDY    71  49  45 S8        30.12F
THEDFORD       DRIZZLE   59  55  86 S21       30.12F
$$

NEZ041-046>049-061>064-073>077-083>087-230000-
SOUTH CENTRAL NEBRASKA

CITY           SKY/WX    TMP DP  RH WIND       PRES   REMARKS
GRAND ISLAND   PTSUNNY   72  49  44 S8        30.16F
AURORA         PTSUNNY   72  46  39 S9        30.15F
HASTINGS       PTSUNNY   71  46  40 SE10      30.16F
HEBRON         MOSUNNY   72  45  37 SE7       30.18F
HOLDREGE       CLOUDY    70  47  43 SE13G18   30.14F
KEARNEY *      CLOUDY    70  48  46 SE10      30.16F
$$

NEZ011>018-030>034-042>045-230000-
NORTHEAST NEBRASKA

CITY           SKY/WX    TMP DP  RH WIND       PRES   REMARKS
NORFOLK        PTSUNNY   72  49  44 SE13      30.15F
ALBION         PTSUNNY   70  49  47 S7        30.15F
BLAIR          MOSUNNY   72  47  42 S7        30.19F
COLUMBUS *     CLOUDY    72  48  43 S7        30.17F
FREMONT        MOSUNNY   72  45  37 S5        30.19F
TEKAMAH        MOSUNNY   73  47  39 S9        30.18F
WAYNE          PTSUNNY   70  51  50 S8        30.16F
$$

NEZ050>053-065>068-078-088>093-230000-
SOUTHEAST NEBRASKA

CITY           SKY/WX    TMP DP  RH WIND       PRES   REMARKS
LINCOLN        PTSUNNY   74  46  36 S9        30.19F
OMAHA EPPLEY   PTSUNNY   73  50  44 S10       30.19F
BEATRICE       PTSUNNY   73  46  37 S7        30.19F
FALLS CITY     MOSUNNY   73  49  42 SE5       30.20F
NEBRASKA CITY    N/A     71  40  32 S8        30.21S
PLATTSMOUTH    MOSUNNY   72  47  41 S5        30.20S
$$

NEZ044-045-051>053-067-230000-
OMAHA AREA

CITY           SKY/WX    TMP DP  RH WIND       PRES   REMARKS
OMAHA EPPLEY   PTSUNNY   73  50  44 S10       30.19F
BLAIR          MOSUNNY   72  47  42 S7        30.19F
FREMONT        MOSUNNY   72  45  37 S5        30.19F
MILLARD        MOSUNNY   73  49  42 S7        30.19F
OFFUTT AFB     MOSUNNY   73  52  48 SE8       30.19F
PLATTSMOUTH    MOSUNNY   72  47  41 S5        30.20S
WAHOO          FAIR      71  47  43 SE3       30.18F
$$



USA.gov is the U.S. government's official web portal to all federal, state and local government web resources and services.